Location: Chuathbaluk
(61.5726°N, 159.2454°W)
Time: 04:59:32
(UTC+00:00)

Transit 2A - Pass Details

Date: 26 November 2020
Orbit: 599 x 960 km, 66.7° (Epoch: 26 January)

Event Time Altitude Azimuth Distance (km) Brightness Sun altitude
Rises 10:38:15 0° 297° (WNW) 3,502 - -49.4°
Reaches altitude 10° 10:40:54 10° 300° (WNW) 2,511 - -49.4°
Maximum altitude 10:46:39 65° 22° (NNE) 884 - -49.3°
Drops below altitude 10° 10:51:49 10° 105° (ESE) 2,259 - -49.2°
Sets 10:54:06 0° 109° (ESE) 3,125 - -49.2°
